Lapse_Rate
5.4 5.4 6.1 7.7 6.5 6.5 6.5 6.5 6.5 6.5 6.5 7.5 7.7 7.0 6.6 7.2 6.6 6.5 8.3 7.3 8.2 9.6 9.5 8.3 6.7 6.5 6.2 6.1 6.2 6.2 6.8 6.6 6.4 6.4 6.5 6.5 6.3 6.4 6.5 6.6 6.7 6.9 6.9 7.3 7.5 7.0 6.9 6.7 6.8
6.0 6.5 7.3 7.6 6.5 6.5 6.5 6.5 6.5 6.5 7.1 7.8 7.7 7.5 7.0 6.5 7.7 8.1 7.3 6.8 6.8 9.2 9.5 9.4 6.5 6.4 6.3 6.0 6.0 6.1 6.3 6.6 6.5 6.3 6.3 6.5 6.5 6.7 6.8 6.8 6.8 7.0 7.0 7.1 7.0 7.5 6.6 6.7 6.7
6.2 6.2 7.5 6.5 6.5 6.5 6.5 6.5 6.5 6.9 7.6 7.4 7.1 7.9 7.5 7.1 8.0 7.6 7.3 5.7 6.5 8.8 9.6 9.3 6.7 6.4 6.2 6.0 5.7 5.9 6.1 6.3 6.4 6.6 6.9 6.3 6.5 6.7 6.5 7.0 7.1 6.9 6.7 6.7 6.3 6.7 7.1 6.9 6.7
7.7 8.0 7.8 6.5 6.5 6.5 6.5 6.5 6.8 6.8 7.4 7.8 7.6 6.5 8.1 8.3 8.7 8.3 6.4 6.6 8.3 9.3 9.4 7.4 6.4 6.7 6.4 6.0 5.8 5.9 6.1 6.4 6.4 6.3 6.6 6.6 6.3 6.6 6.7 6.7 6.6 7.0 6.6 6.6 6.3 7.2 6.7 6.7 6.8
7.0 7.7 6.5 6.5 6.5 6.5 6.5 7.0 7.2 6.5 7.0 7.3 7.6 6.7 7.3 8.7 8.5 8.5 7.7 7.7 7.0 7.6 8.8 9.2 6.1 6.7 6.7 6.3 6.0 6.0 6.1 6.0 6.1 6.4 6.5 6.6 6.6 6.4 6.1 6.1 6.0 6.1 6.9 6.5 6.1 6.5 6.7 6.7 6.8
7.3 7.5 6.5 6.5 6.5 6.5 6.6 7.3 7.2 6.9 7.2 7.4 7.2 7.1 7.5 8.7 8.7 7.8 7.5 7.7 6.2 5.7 6.1 6.8 7.0 7.0 6.8 6.4 6.3 6.3 6.1 6.1 5.9 6.0 6.1 6.2 6.4 6.0 5.9 5.7 5.9 6.0 6.3 6.4 6.0 6.2 6.5 6.7 6.8
6.8 6.5 6.5 6.5 6.5 6.5 6.5 7.6 6.9 6.9 6.9 7.0 7.9 6.5 7.9 8.6 8.2 7.7 7.4 7.2 6.9 5.6 5.8 6.1 8.3 8.3 6.5 6.3 6.6 6.4 6.1 6.0 5.8 5.8 6.1 6.0 5.8 6.0 5.9 5.7 5.5 5.3 5.0 6.2 5.9 6.2 6.7 6.9 7.0
7.6 6.6 6.5 6.5 6.5 6.5 6.8 7.2 7.6 7.3 6.9 8.3 8.3 6.6 6.9 8.6 8.1 8.1 7.9 7.0 6.8 6.7 6.1 4.7 6.1 6.8 9.0 9.3 6.5 6.3 6.5 6.3 6.1 6.3 6.2 5.9 5.5 5.6 5.7 5.6 5.4 4.8 4.6 5.9 5.8 7.0 7.2 7.0 6.8
6.3 6.5 6.5 6.5 6.5 6.5 7.2 6.6 7.7 8.0 7.6 7.9 8.2 8.1 8.4 7.8 7.7 8.5 8.0 7.7 7.3 6.9 6.6 6.2 5.3 5.9 7.2 8.5 8.2 6.4 6.5 6.3 6.2 6.1 5.9 5.9 8.1 7.2 5.8 6.7 4.5 4.7 4.8 5.8 6.1 7.4 7.2 6.5 6.4
6.9 6.5 6.5 6.6 6.6 6.5 6.9 7.0 7.2 7.1 7.1 7.3 7.7 8.4 8.6 8.3 8.1 8.6 8.5 8.5 7.5 7.1 6.8 6.3 6.5 5.2 5.7 5.4 6.7 7.6 7.8 7.2 6.9 7.4 7.2 8.3 9.2 9.2 8.4 5.6 5.1 5.2 6.3 6.6 6.8 7.1 7.0 6.7 8.4
6.9 6.5 6.5 6.8 7.2 7.3 6.9 7.0 7.6 7.0 6.5 7.3 7.2 7.9 8.4 7.8 8.4 8.3 8.7 8.6 7.8 6.7 6.6 5.8 5.8 6.0 6.6 6.0 5.2 5.9 7.1 6.5 6.6 7.3 8.8 8.6 7.7 6.9 7.5 8.0 7.3 7.6 7.6 9.2 7.7 7.3 9.3 9.6 9.0
6.5 6.9 7.0 7.1 7.4 7.2 6.7 7.4 6.9 7.2 7.2 8.1 8.2 8.0 7.1 8.2 7.9 7.8 8.5 8.6 8.3 7.3 6.5 5.8 5.7 5.9 6.0 6.4 5.7 4.9 4.9 6.2 6.0 6.5 7.4 7.5 8.1 7.7 9.1 9.2 8.4 9.6 9.5 9.6 8.8 7.8 6.8 9.6 9.0
6.5 6.7 7.1 7.4 7.3 7.4 7.5 6.9 6.9 7.2 8.0 8.2 7.5 6.9 7.8 7.7 7.8 7.8 7.5 7.8 8.2 7.6 6.6 6.3 6.0 6.0 5.9 6.5 6.5 6.5 5.7 4.4 3.7 4.5 4.7 5.4 5.4 6.3 7.8 8.0 7.7 9.2 9.5 9.5 9.2 6.6 6.3 8.2 9.4
7.1 7.0 7.0 7.3 7.2 7.3 6.7 6.9 7.2 7.3 8.0 7.8 7.3 7.8 8.1 7.9 7.7 7.6 7.7 7.8 7.9 7.5 7.0 6.6 6.3 5.8 5.9 6.4 6.6 7.1 6.5 6.5 4.5 3.9 3.3 3.6 4.1 4.2 4.3 5.6 7.3 7.2 9.1 9.3 7.9 6.1 6.2 6.4 7.0
7.2 6.5 6.5 6.8 7.0 6.7 7.3 6.5 6.5 7.6 7.8 7.7 7.8 7.9 7.8 8.0 7.6 8.3 7.6 7.4 7.4 7.0 6.6 6.5 6.1 6.0 6.3 5.9 6.1 6.3 6.8 6.7 6.2 4.7 3.9 3.3 3.5 3.7 4.2 5.5 5.4 6.6 7.5 7.4 6.8 5.5 5.6 5.8 6.0
6.5 6.5 6.5 6.5 6.8 6.9 6.9 6.5 6.6 7.7 7.6 7.4 7.7 7.9 7.7 8.0 8.4 7.9 7.0 6.6 6.7 6.9 6.7 6.5 6.5 6.4 6.1 6.2 5.9 5.8 6.1 6.7 6.3 5.9 5.1 4.5 3.8 3.6 3.4 4.4 5.1 4.1 6.0 6.2 6.8 6.7 5.3 5.3 5.3
6.5 6.5 6.5 6.5 6.8 6.5 6.5 6.5 6.7 7.6 7.5 7.3 7.7 7.9 8.0 8.1 8.3 7.6 7.1 7.2 6.4 6.3 6.0 6.1 6.2 6.2 6.0 5.9 5.6 5.7 5.5 6.1 6.9 7.1 5.4 6.1 5.1 3.9 3.6 4.2 3.6 2.9 3.5 6.0 6.7 5.6 5.7 5.2 5.0
6.5 6.5 6.5 6.5 6.5 6.5 6.5 6.5 6.5 7.4 7.4 7.4 7.6 7.8 7.9 8.1 8.2 7.2 7.1 6.8 6.7 6.7 6.5 6.4 6.4 6.3 6.0 6.0 6.1 6.0 5.9 6.2 5.9 8.1 6.5 6.8 5.9 4.7 4.1 3.2 2.8 3.1 2.5 3.4 3.5 4.7 4.4 5.0 4.9
6.5 6.5 6.5 6.5 6.5 6.5 6.5 6.5 6.5 7.0 7.1 7.0 7.3 7.6 7.8 8.0 8.2 7.1 6.8 6.7 6.5 7.3 7.3 7.1 6.9 7.3 6.6 6.3 5.9 6.3 6.3 6.5 5.9 5.1 8.4 7.3 7.2 5.3 4.2 3.7 3.3 3.5 3.7 3.1 5.0 3.8 3.7 3.3 4.1
6.5 6.5 6.5 6.5 6.5 6.5 6.5 6.5 6.5 6.7 6.9 7.2 7.3 7.5 7.7 8.0 8.3 7.5 7.1 6.8 6.9 7.2 7.4 7.2 7.3 7.4 7.5 6.8 6.5 6.1 6.1 5.9 4.9 4.9 6.4 9.1 6.7 5.9 4.7 4.0 3.7 4.0 4.0 3.7 5.4 5.2 3.3 3.2 3.6
6.5 6.5 6.5 6.5 6.5 6.5 6.5 6.5 6.5 6.6 7.1 7.4 7.6 7.8 8.0 8.0 8.1 8.3 7.3 7.2 7.2 7.3 6.8 6.8 6.7 6.9 7.4 7.5 6.8 6.4 5.7 4.2 5.1 6.5 7.0 6.8 6.9 5.7 5.6 5.0 4.7 4.0 3.4 3.1 4.1 4.6 4.8 4.2 4.2
6.5 6.5 6.5 6.5 6.5 6.5 6.5 6.5 6.5 6.5 6.5 6.7 7.2 7.6 7.9 8.1 8.3 8.5 8.3 7.5 7.2 6.6 6.3 6.7 6.6 6.3 6.7 6.9 7.0 7.0 6.3 5.4 5.6 6.4 8.1 8.3 7.5 6.4 6.1 5.9 5.0 4.5 4.5 4.5 4.1 4.5 6.2 5.2 4.1
6.5 6.5 6.5 6.5 6.5 6.5 6.5 6.5 6.5 6.5 6.5 6.5 6.9 7.5 7.8 8.1 8.3 8.3 8.5 7.3 6.8 6.6 6.2 6.5 6.6 6.6 6.1 6.0 6.6 6.5 6.5 6.0 6.0 7.6 7.5 6.9 6.8 5.9 5.9 5.5 6.2 5.4 4.7 5.4 4.8 4.2 5.3 6.0 4.9
6.5 6.5 6.5 6.5 6.5 6.5 6.5 6.5 6.5 6.5 6.5 6.5 6.9 7.5 7.8 8.1 8.2 8.4 8.7 8.6 7.7 7.4 7.1 6.7 6.6 6.3 6.2 5.5 5.5 6.3 7.6 7.7 7.9 8.5 7.6 7.0 6.6 6.0 5.4 5.7 5.8 5.8 5.1 5.7 4.2 4.4 5.0 6.0 6.7
6.5 6.5 6.5 6.5 6.5 6.5 6.5 6.5 6.5 6.5 6.5 6.7 6.8 7.4 7.9 8.2 8.2 8.2 8.3 8.4 8.2 7.7 7.4 7.1 7.0 6.4 5.9 5.4 5.0 5.4 5.9 7.5 7.0 8.5 8.9 7.6 6.8 5.8 5.6 5.4 5.3 5.2 5.0 6.2 5.5 4.9 5.6 5.4 5.6
6.5 6.5 6.5 6.5 6.5 6.5 6.5 6.5 6.5 6.5 7.1 7.4 7.5 7.7 8.0 8.1 8.3 8.3 8.3 7.8 8.6 7.7 7.5 7.4 7.2 6.4 6.1 5.4 4.8 4.9 5.9 6.5 6.8 7.0 7.9 7.8 7.0 6.9 6.6 5.1 4.7 5.1 5.0 4.5 5.1 5.3 5.8 5.7 4.1
6.5 6.5 6.5 6.5 6.5 6.5 6.5 6.5 6.5 6.5 6.5 7.1 7.3 7.6 7.7 8.0 8.2 8.2 8.4 8.6 8.6 7.9 7.6 7.4 7.0 6.5 6.3 5.8 5.4 5.1 5.8 6.9 6.7 6.8 6.7 7.2 6.3 5.9 5.9 5.0 5.2 4.6 4.2 4.5 4.2 4.7 4.5 4.9 4.4
6.5 6.5 6.5 6.5 6.5 6.5 6.5 6.5 6.5 6.5 6.5 6.5 6.8 7.3 7.7 8.0 8.2 8.4 8.5 8.5 8.4 7.5 7.1 7.1 6.8 6.3 6.3 6.1 6.6 6.2 6.3 7.4 7.0 6.2 5.8 5.4 5.6 6.2 6.1 5.1 4.3 5.0 4.8 5.0 4.4 4.7 4.8 4.5 4.0
6.5 6.5 6.5 6.5 6.5 6.5 6.5 6.5 6.5 6.5 6.5 6.5 7.0 7.4 7.8 8.0 8.2 8.3 8.4 8.6 8.5 8.4 7.4 7.0 6.6 6.4 6.0 6.4 5.8 5.4 4.5 4.7 5.7 5.7 6.0 5.1 6.2 6.0 5.7 5.1 5.1 5.2 5.0 4.9 4.5 4.2 4.5 3.9 2.7
6.5 6.5 6.5 6.5 6.5 6.5 6.5 6.5 6.5 6.5 6.8 7.1 7.2 7.6 7.9 8.1 8.3 8.5 8.6 8.7 8.6 8.5 8.2 7.4 7.1 6.6 5.9 6.1 5.6 5.2 4.6 4.6 5.2 5.1 5.6 5.6 5.1 6.9 6.4 5.9 4.8 4.4 4.3 4.0 4.2 3.9 3.6 3.4 3.0
Wind_Speed
3 2 1 3 4 3 4 3 1 3 2 3 4 5 7 7 7 3 3 9 11 6 12 11 11 10 11 9 9 7 10 13 17 17 16 17 18 19 16 15 14 13 12 12 10 12 15 15 16
1 1 2 1 3 6 5 2 4 5 5 5 1 2 1 5 4 3 3 14 12 5 11 10 14 12 10 9 10 9 9 12 15 15 16 17 18 20 19 17 14 12 11 11 11 13 14 16 16
2 2 1 2 1 3 3 3 3 2 4 1 2 4 3 3 2 3 8 12 9 4 11 8 10 12 11 9 9 9 10 11 10 11 14 15 15 16 17 18 15 12 9 8 10 13 16 16 15
1 2 2 2 5 4 4 4 5 1 1 6 2 5 3 5 4 9 8 12 6 2 11 10 7 10 11 10 9 10 10 11 12 10 10 11 12 13 13 16 15 14 9 9 9 11 17 16 14
2 1 2 3 4 4 4 3 3 3 2 6 2 3 4 3 5 8 10 10 11 5 4 8 8 9 10 11 10 10 10 9 9 8 10 9 9 12 19 16 15 13 12 10 10 8 16 16 14
1 2 2 3 4 4 2 3 1 3 4 4 2 2 3 3 6 8 9 10 7 3 1 2 5 8 10 11 12 12 11 11 11 11 11 12 14 17 18 16 14 13 11 11 11 9 15 16 14
2 2 3 4 6 5 2 2 1 3 2 4 2 1 3 3 7 7 7 9 10 9 3 3 5 6 8 10 12 13 13 13 13 13 15 17 19 17 16 16 12 10 9 11 11 11 12 13 15
2 2 3 2 5 3 3 3 4 5 3 3 2 2 3 4 6 6 5 7 9 10 9 8 7 6 6 10 12 13 15 17 17 18 18 19 21 22 15 14 12 11 10 10 11 12 11 11 13
2 2 4 2 1 3 3 3 2 3 5 3 1 2 4 6 4 4 5 6 6 7 8 7 7 7 6 9 9 14 15 17 20 21 19 18 15 14 17 9 13 9 11 11 11 10 13 13 14
3 2 2 2 3 2 2 3 3 3 4 4 4 3 2 4 5 5 5 5 6 7 7 7 7 7 6 3 8 11 12 14 17 17 16 15 10 10 10 11 12 8 11 13 12 12 13 15 14
3 3 4 3 1 1 1 1 2 4 3 2 2 3 3 5 3 4 3 4 5 5 6 8 7 8 7 5 4 4 9 11 13 15 14 12 9 10 11 10 8 11 12 14 14 14 14 16 13
4 3 1 2 1 2 3 2 3 3 2 2 3 4 5 4 3 4 3 4 4 6 7 8 8 7 8 7 4 3 3 7 7 9 14 12 11 10 9 7 8 10 14 10 13 10 6 12 11
5 4 1 1 3 5 5 5 5 8 7 4 3 4 5 4 3 2 2 3 4 6 7 8 9 8 8 6 6 5 3 4 4 6 7 8 6 6 9 7 8 9 11 12 9 8 7 6 10
3 3 3 2 1 1 5 7 4 2 7 8 2 1 2 1 1 3 5 4 5 6 7 8 9 9 10 7 7 5 6 6 6 8 9 8 8 6 6 4 8 9 10 11 9 8 7 6 9
2 3 2 4 5 1 6 4 5 3 6 9 4 2 1 1 4 5 4 5 4 5 5 7 8 10 9 9 8 7 7 7 7 8 11 13 13 12 6 7 5 9 10 7 10 9 8 5 5
2 3 3 3 8 1 7 2 3 5 7 11 8 5 2 2 6 5 5 4 5 5 7 8 8 10 10 9 8 8 8 8 8 8 8 12 14 16 12 7 7 10 5 8 7 7 5 4 4
1 1 2 2 3 6 3 8 2 3 6 11 11 10 6 5 7 6 4 3 4 5 7 8 10 11 11 9 8 8 9 8 9 9 8 10 14 16 13 9 10 15 8 6 7 6 6 5 4
2 3 3 4 2 5 11 14 13 14 11 15 13 9 7 8 6 4 4 4 4 4 6 7 7 9 11 8 7 5 5 5 8 8 9 9 10 14 12 9 10 14 7 4 5 8 6 5 5
0 4 6 3 2 8 5 15 17 9 6 3 5 6 7 6 3 4 6 5 5 4 7 8 8 9 8 8 7 5 4 5 4 6 11 10 8 11 11 6 7 9 8 10 10 9 12 5 5
3 6 4 5 1 7 10 15 4 8 8 7 5 6 7 4 4 5 7 6 5 7 8 9 9 9 8 6 7 5 6 5 5 5 10 11 9 9 9 7 9 12 8 9 13 12 7 4 9
3 5 5 5 11 2 11 1 3 6 9 10 10 9 8 8 7 7 7 6 6 9 10 10 10 10 8 9 6 6 5 4 5 6 5 6 9 9 11 10 9 10 9 8 10 10 12 6 9
4 1 5 9 8 5 5 1 5 4 7 9 10 10 10 10 10 12 11 10 9 9 9 10 10 10 8 10 8 8 6 7 6 6 5 6 9 10 12 13 10 9 8 10 11 10 11 10 10
3 4 6 5 5 4 1 3 4 2 6 7 10 10 10 12 12 13 14 12 10 8 9 10 11 11 10 10 9 7 9 6 6 6 6 5 5 9 10 11 10 9 9 13 13 12 12 11 11
4 3 3 2 1 2 4 5 4 4 5 6 8 9 12 15 15 13 13 12 10 8 9 10 13 13 12 11 10 10 11 10 7 6 6 5 6 5 8 11 8 10 10 13 10 12 12 9 10
1 4 3 2 2 1 2 3 5 8 5 8 8 11 13 14 15 15 15 13 10 10 10 11 14 15 14 13 11 11 11 11 9 9 7 8 6 5 7 8 8 7 8 12 13 11 12 10 9
2 1 1 4 3 3 0 5 5 7 8 8 10 12 13 15 15 15 15 13 10 10 12 14 16 16 15 14 13 11 11 8 6 7 8 7 7 8 10 8 8 9 9 8 9 11 11 12 8
1 1 2 1 1 3 2 3 7 6 10 13 14 14 15 16 17 17 15 13 11 12 13 15 16 16 15 15 12 12 10 11 8 8 7 7 7 6 8 10 9 8 8 10 10 9 11 11 10
3 4 2 2 3 5 4 5 2 6 11 13 15 15 15 15 15 15 14 14 13 13 13 14 15 15 15 14 12 11 12 12 10 7 8 8 7 8 7 10 10 10 10 11 11 8 9 11 8
2 2 1 2 2 3 4 2 5 7 8 10 11 11 12 13 14 13 13 13 13 14 14 15 15 16 15 14 13 13 9 11 10 8 8 7 8 7 9 9 11 10 10 10 9 8 10 10 9
2 4 5 4 4 2 3 5 6 8 6 7 9 10 11 13 13 14 15 15 15 15 16 16 15 16 15 15 15 13 10 11 4 6 6 6 7 9 10 10 9 8 9 10 10 9 8 10 10
Wind_Direction
323 25 175 221 203 236 161 100 360 70 107 40 342 9 53 34 0 39 353 10 329 297 202 179 185 183 171 169 145 144 149 147 157 158 160 158 157 151 150 144 142 139 134 131 122 119 127 123 116
94 183 214 163 234 203 133 79 103 39 3 317 189 258 79 70 31 26 46 344 325 298 180 195 170 186 184 177 163 158 159 156 163 171 171 172 168 161 156 146 141 139 142 138 127 120 118 120 123
113 328 246 136 157 230 122 101 41 27 17 38 128 28 24 44 68 19 344 325 313 262 197 182 176 180 185 187 171 169 172 172 175 184 176 179 178 174 166 144 138 131 130 133 133 127 128 127 126
246 166 126 238 110 86 72 69 9 21 131 43 10 92 103 29 356 2 343 332 323 118 193 147 186 184 188 189 193 187 189 184 179 188 179 188 194 185 155 133 131 125 128 146 146 139 138 135 134
26 241 119 102 91 108 90 33 6 52 71 32 344 99 90 66 1 6 0 10 8 11 176 181 188 197 194 194 200 199 199 183 182 179 175 182 189 159 137 133 130 132 144 158 157 142 146 140 142
112 292 171 149 129 131 110 6 322 41 46 51 98 126 91 64 16 1 358 12 8 352 278 216 194 212 216 213 211 209 202 196 186 176 169 154 146 143 141 140 138 140 152 167 166 154 154 153 153
40 357 59 107 123 149 103 352 12 7 11 51 347 218 102 115 17 357 7 13 29 49 45 342 247 205 219 229 224 215 211 204 191 181 170 150 142 143 146 146 136 137 166 177 175 170 168 155 148
30 40 105 58 160 104 56 357 354 339 41 342 298 218 162 52 4 352 14 34 42 51 49 30 323 273 247 218 220 228 224 210 193 180 170 155 154 154 153 137 138 162 174 186 180 187 171 152 154
311 110 94 83 134 67 21 333 36 327 292 288 280 272 39 359 355 22 33 43 42 44 38 37 17 0 266 261 238 224 228 201 188 178 171 166 179 171 161 152 149 167 184 188 195 188 163 148 162
11 40 98 132 118 84 19 321 336 281 302 254 232 209 337 356 7 23 33 28 30 22 22 19 24 22 13 325 264 239 226 209 194 189 185 201 205 194 192 151 146 179 203 187 203 194 165 171 166
30 79 138 138 117 156 21 281 313 297 248 261 264 242 323 338 339 348 6 21 15 26 24 19 12 7 15 15 352 289 236 219 216 214 210 212 184 171 181 170 171 187 201 183 205 182 179 188 171
115 70 39 128 83 278 308 303 269 252 319 346 291 294 296 297 301 336 16 47 56 47 38 27 23 20 8 352 357 352 278 247 216 211 209 202 195 185 191 186 188 199 185 192 178 162 187 185 178
86 131 102 30 304 303 296 264 280 251 230 260 298 255 258 262 276 89 91 96 77 61 42 31 23 19 9 358 347 326 292 221 209 214 192 189 164 165 184 185 189 197 189 189 174 161 145 190 168
68 85 89 92 32 301 303 296 293 190 173 178 183 219 233 226 160 137 139 109 71 55 40 24 17 10 2 356 340 317 304 274 213 210 210 177 167 152 163 174 190 193 207 191 168 149 146 144 160
98 144 186 50 340 228 318 230 227 175 187 198 189 82 33 268 203 161 119 95 61 58 27 20 7 358 353 345 335 314 290 271 260 233 204 172 175 168 184 180 185 187 185 168 149 129 134 131 138
172 194 244 48 347 7 322 294 160 186 221 236 241 251 315 135 150 132 114 87 47 26 10 0 355 350 344 337 328 313 295 272 260 255 228 192 188 174 176 195 168 151 140 162 165 144 126 129 162
20 308 312 269 61 322 324 295 162 176 253 253 248 259 275 178 148 129 108 69 42 12 357 347 345 341 338 327 320 311 293 273 258 250 250 219 196 185 180 191 173 157 150 164 163 138 132 131 134
301 305 273 274 14 321 292 271 300 303 282 271 259 256 217 177 140 93 55 33 5 2 349 336 333 332 335 327 318 310 300 285 276 262 242 242 206 188 189 185 171 163 136 152 139 131 109 117 135
227 275 282 290 17 322 299 299 316 340 324 269 205 179 165 151 91 50 20 8 351 354 344 343 336 338 339 333 326 319 309 302 264 275 253 245 234 190 186 172 168 162 179 167 166 136 126 105 124
290 293 315 291 223 322 311 307 354 21 33 33 92 108 120 89 74 34 360 346 347 339 348 342 338 334 334 329 319 304 307 293 288 266 259 239 230 200 185 179 179 181 168 169 176 164 143 124 157
317 312 333 315 319 212 309 215 90 62 65 71 69 80 76 60 30 7 349 336 328 342 344 338 334 328 328 328 317 307 295 283 271 254 245 232 215 201 197 191 180 179 164 177 180 173 165 149 180
297 2 318 314 325 315 354 317 77 18 85 72 85 74 63 50 29 9 348 338 334 337 335 337 339 333 330 325 315 305 295 285 281 284 261 239 220 206 210 209 189 184 188 185 184 186 185 165 178
333 340 312 307 296 299 50 279 66 39 92 92 84 76 57 19 353 342 344 328 326 330 333 332 332 330 333 329 314 300 283 274 277 257 256 224 223 214 201 198 200 188 185 188 191 186 196 188 173
313 257 254 215 253 231 30 347 80 33 14 102 88 52 10 355 346 340 330 334 323 334 335 335 332 326 326 325 317 300 289 280 266 260 253 227 210 201 202 205 201 198 194 187 183 187 194 202 186
313 300 303 249 234 344 68 291 37 32 48 58 29 5 1 359 355 348 344 341 336 342 342 337 331 324 323 321 315 307 292 284 277 272 262 239 217 194 202 199 199 199 204 208 195 190 197 189 179
64 74 151 283 283 303 240 227 127 90 67 41 16 6 7 5 360 358 355 354 357 350 342 333 327 323 322 319 315 307 294 281 267 265 262 248 227 221 201 198 200 205 194 195 203 200 190 191 170
105 175 79 263 266 264 223 192 114 109 35 20 15 11 7 4 3 1 1 2 355 345 339 332 327 325 323 320 316 312 302 286 266 261 257 251 232 209 205 199 193 187 192 191 196 194 195 190 181
302 134 201 184 263 269 206 262 182 43 11 11 12 9 2 357 359 356 357 354 348 346 343 337 333 329 325 321 317 313 308 296 281 254 246 239 232 219 214 201 191 190 194 197 194 194 194 182 181
185 197 192 305 242 272 298 200 98 66 40 19 12 5 359 355 353 350 350 348 347 351 349 339 338 334 330 325 319 311 301 289 273 233 234 234 230 211 211 204 207 198 193 194 195 187 182 169 161
255 230 224 238 193 233 318 270 120 70 52 32 16 5 2 3 1 0 356 351 351 350 349 343 338 336 331 322 319 313 307 301 247 230 222 217 223 228 217 211 197 188 188 185 187 179 177 177 177